Main page
METAR-TAF:

METAR-TAF

Airports :

Okeechobee County Airport

Okeechobee, Florida, United States

latitude: 27-15-58N, longitude: 080-51-04W, elevation: 33 ft

Current weather observation

The report was made 19 minutes ago, at 12:55 UTC
Wind 3 mph from the Northeast
Temperature 79°F
Humidity 79%
Pressure 30.00 in. Hg
Visibility: 10 miles
Broken clouds at a height of 3100 ft
Broken clouds at a height of 6000 ft

METAR: KOBE 211255Z AUTO 04003KT 10SM BKN031 BKN060 26/22 A3000 RMK AO2

Time: 09:14 (13:14 UTC)


TAF: missing

Weather observations and forecasts of more than 4000 airports (METAR and TAF reports).

The available stations are represented by yellow and red dots on the map.

Hover mouse over dot to see the name of the station.

Then click to see weather observations and forecasts.

To change the map : click on the green buttons with a black cross to zoom in, on the green button with a dash to zoom out, or on the green arrows for adjacent maps.


METAR-TAF: